Location: Donzy-le-Pr�
(47.3659°N, 3.1107°E)
Time: 16:55:38
(UTC+00:00)

H-2A R/B - Pass Details

Date: 03 March 2021
Orbit: 578 x 654 km, 98.5° (Epoch: 20 April)

Event Time Altitude Azimuth Distance (km) Brightness Sun altitude
Rises 18:30:52 0° 3° (N) 2,809 5.4 -10.1°
Reaches altitude 10° 18:33:18 10° 351° (N) 1,902 4.7 -10.5°
Maximum altitude 18:36:40 25° 295° (WNW) 1,182 4.4 -11.1°
Drops below altitude 10° 18:40:02 10° 240° (WSW) 1,896 5.5 -11.7°
Sets 18:42:27 0° 227° (SW) 2,797 6.1 -12.1°
